• Join FlightAware (Why Join?)
  • Login
  • US Flag 
12:35PM EST


 

Airport Tracker/Info


-or-


 

Live Flight TrackerFlight Track Log ✈ ASQ4209 ✈ 22-Jul-2013 ✈ KIAH - KBTR

Flight Track Log - Related Links

Times and Time Zones

All times are in EDT time to prevent confusion due to time zone crossing. See the ASQ4209 flight status page for this flight to view local times or setup timezone preferences in your user account.

Time Position Orientation Groundspeed Altitude Reporting Facility
EDT Latitude Longitude Course Direction KTS MPH feet Rate Location/Type
01:20PM 29.9614 -95.3411 90° East 163 188 700  Level Houston Center
01:21PM 29.9275 -95.2897 127° Southeast 206 237 3,000 1,963 Climbing Houston Center
01:22PM 29.9164 -95.2519 109° East 212 244 4,200 1,765 Climbing Houston Center
01:23PM 29.9139 -95.1714 92° East 245 282 6,000 1,951 Climbing Houston Center
01:24PM 29.9834 -94.8968 90° East  Level FlightAware Approximate
01:24PM 29.8939 -95.0844 105° East 278 320 8,200  Level Houston Center
01:25PM 29.9834 -94.7877 90° East  Level FlightAware Approximate
01:25PM 29.9044 -94.9889 83° East 303 349 10,200  Level Houston Center
01:26PM 29.9283 -94.8700 77° East 318 366 11,900 1,355 Climbing Houston Center
01:27PM 29.9431 -94.7572 81° East 351 404 13,000 1,065 Climbing Houston Center
01:28PM 29.9511 -94.6369 86° East 374 430 14,100 1,065 Climbing Houston Center
01:29PM 29.9458 -94.5144 93° East 381 438 15,200 968 Climbing Houston Center
01:30PM 29.9406 -94.3958 93° East 388 447 16,100 1,073 Climbing Houston Center
01:31PM 29.9353 -94.2450 92° East 393 452 17,400 1,073 Climbing Houston Center
01:32PM 29.9397 -94.1181 88° East 397 457 18,300 968 Climbing Houston Center
01:33PM 29.9531 -93.9900 83° East 403 464 19,400 1,065 Climbing Houston Center
01:34PM 29.9800 -93.8647 76° East 404 465 20,500 1,016 Climbing Houston Center
01:35PM 30.0061 -93.7394 76° East 405 466 21,500 1,024 Climbing Houston Center
01:36PM 30.0342 -93.6125 76° East 410 472 22,600 732 Climbing Houston Center
01:37PM 30.0658 -93.4597 76° East 416 479 23,000 194 Climbing Houston Center
01:38PM 30.0944 -93.3250 76° East 437 503 23,000 -435 Level Houston Center
01:39PM 30.1233 -93.1878 76° East 445 512 22,100 -919 Descending Houston Center
01:40PM 30.1519 -93.0528 76° East 438 504 21,100 -968 Descending Houston Center
01:41PM 30.1781 -92.9200 77° East 431 496 20,100 -1,659 Descending Houston Center
01:42PM 30.2111 -92.7619 76° East 425 489 17,700 -1,263 Descending Houston Center
01:44PM 30.2311 -92.6323 80° East  Level FlightAware Approximate
01:45PM 30.3033 -92.3992 79° East 400 460 14,900  Level Houston Center
01:46PM 30.3297 -92.2667 77° East 418 481 14,900 -290 Level Houston Center
01:47PM 30.3544 -92.1372 77° East 416 479 14,300 -1,415 Descending Houston Center
01:48PM 30.3733 -91.9928 81° East 382 440 12,000 -1,659 Descending Houston Center
01:49PM 30.3639 -91.8839 96° East 348 400 10,900 -532 Descending Houston Center
01:51PM 30.3727 -91.9138 79° East  Level FlightAware Approximate
01:51PM 30.3433 -91.7833 103° East 326 375 10,900  Level Houston Center
01:52PM 30.3508 -91.6686 86° East 334 384 10,900 -581 Level Houston Center
01:53PM 30.3650 -91.5692 81° East 318 366 9,700 -1,512 Descending Houston Center
01:54PM 30.3825 -91.4750 78° East 302 348 7,800 -1,659 Descending Houston Center
01:55PM 30.4092 -91.3853 71° East 296 341 6,300 -919 Descending Houston Center
01:56PM 30.4339 -91.2981 72° East 290 334 5,900 -871 Descending Houston Center
01:57PM 30.4572 -91.2119 73° East 285 328 4,500 -1,452 Descending Houston Center
01:58PM 30.4975 -91.1203 63° Northeast 275 316 2,900 -1,548 Descending Houston Center